• en Suisse
  • Liste des pays
  • À 7 jours
  • Température de l'eau
  • Carte satellitaire
  • Carte météo
  • Widgets météo
  • user-avatar
    Se connecter

    Météo par heure à Serhiivka

    Ce jour, 25 Avril, Mercredi

    Heure Température Précipitation Vent Pression Humidité
    00:00 +13°C° 0 mm 3 m/s 755 mmHg 86%
    01:00 +12°C° 0 mm 3 m/s 755 mmHg 88%
    02:00 +13°C° 0 mm 2 m/s 755 mmHg 90%
    03:00 +13°C° 0 mm 2 m/s 755 mmHg 90%
    04:00 +13°C° 0 mm 2 m/s 756 mmHg 90%
    05:00 +13°C° 0 mm 2 m/s 756 mmHg 91%
    06:00 +14°C° 0 mm 2 m/s 756 mmHg 82%
    07:00 +16°C° 0 mm 2 m/s 756 mmHg 73%
    08:00 +18°C° 0 mm 2 m/s 757 mmHg 65%
    09:00 +19°C° 0 mm 3 m/s 757 mmHg 57%
    10:00 +21°C° 0 mm 3 m/s 757 mmHg 49%
    11:00 +22°C° 0 mm 3 m/s 757 mmHg 41%
    12:00 +24°C° 0 mm 3 m/s 757 mmHg 39%
    13:00 +24°C° 0 mm 3 m/s 756 mmHg 36%
    14:00 +25°C° 0 mm 3 m/s 756 mmHg 34%
    15:00 +25°C° 0 mm 3 m/s 756 mmHg 35%
    16:00 +25°C° 0 mm 3 m/s 756 mmHg 36%
    17:00 +25°C° 0 mm 3 m/s 755 mmHg 37%
    18:00 +22°C° 0 mm 3 m/s 755 mmHg 42%
    19:00 +20°C° 0 mm 3 m/s 756 mmHg 47%
    20:00 +18°C° 0 mm 2 m/s 756 mmHg 52%
    21:00 +18°C° 0 mm 3 m/s 756 mmHg 55%
    22:00 +17°C° 0 mm 3 m/s 756 mmHg 59%
    23:00 +16°C° 0 mm 3 m/s 756 mmHg 63%

    Demain, 26 Avril, Jeudi

    Heure Température Précipitation Vent Pression Humidité
    00:00 +16°C° 0 mm 3 m/s 756 mmHg 64%
    01:00 +14°C° 0 mm 4 m/s 756 mmHg 65%
    02:00 +14°C° 0 mm 4 m/s 756 mmHg 66%
    03:00 +14°C° 0 mm 4 m/s 756 mmHg 68%
    04:00 +13°C° 0 mm 4 m/s 756 mmHg 71%
    05:00 +13°C° 0 mm 4 m/s 755 mmHg 74%
    06:00 +15°C° 0 mm 4 m/s 756 mmHg 70%
    07:00 +17°C° 0 mm 5 m/s 756 mmHg 66%
    08:00 +20°C° 0 mm 5 m/s 756 mmHg 62%
    09:00 +21°C° 0 mm 5 m/s 756 mmHg 57%
    10:00 +23°C° 0 mm 6 m/s 756 mmHg 52%
    11:00 +26°C° 0 mm 6 m/s 755 mmHg 48%
    12:00 +27°C° 0 mm 6 m/s 755 mmHg 45%
    13:00 +27°C° 0 mm 5 m/s 755 mmHg 43%
    14:00 +28°C° 0 mm 5 m/s 755 mmHg 41%
    15:00 +27°C° 0 mm 5 m/s 755 mmHg 43%
    16:00 +27°C° 0 mm 5 m/s 755 mmHg 45%
    17:00 +26°C° 0 mm 5 m/s 754 mmHg 47%
    18:00 +23°C° 0 mm 4 m/s 755 mmHg 53%
    19:00 +21°C° 0 mm 4 m/s 755 mmHg 59%
    20:00 +19°C° 0 mm 4 m/s 755 mmHg 64%
    21:00 +18°C° 0 mm 3 m/s 755 mmHg 65%
    22:00 +17°C° 0 mm 3 m/s 755 mmHg 67%
    23:00 +16°C° 0 mm 2 m/s 755 mmHg 68%

    Après-demain, 27 Avril, Vendredi

    Heure Température Précipitation Vent Pression Humidité
    00:00 +16°C° 0 mm 2 m/s 755 mmHg 70%
    01:00 +14°C° 0 mm 3 m/s 755 mmHg 71%
    02:00 +13°C° 0 mm 3 m/s 755 mmHg 72%
    03:00 +14°C° 0 mm 2 m/s 754 mmHg 74%
    04:00 +14°C° 0 mm 2 m/s 754 mmHg 76%
    05:00 +13°C° 0 mm 2 m/s 754 mmHg 78%
    06:00 +15°C° 0 mm 2 m/s 754 mmHg 72%
    07:00 +17°C° 0 mm 3 m/s 754 mmHg 66%
    08:00 +19°C° 0 mm 3 m/s 754 mmHg 60%
    09:00 +20°C° 0,1 mm 3 m/s 755 mmHg 56%
    10:00 +22°C° 0,1 mm 4 m/s 755 mmHg 53%
    11:00 +25°C° 0,1 mm 4 m/s 755 mmHg 49%
    12:00 +22°C° 0,2 mm 5 m/s 755 mmHg 55%
    13:00 +21°C° 0,2 mm 6 m/s 755 mmHg 60%
    14:00 +20°C° 0,2 mm 7 m/s 755 mmHg 66%
    15:00 +20°C° 0,1 mm 6 m/s 755 mmHg 64%
    16:00 +20°C° 0,1 mm 6 m/s 755 mmHg 62%
    17:00 +20°C° 0,1 mm 6 m/s 756 mmHg 60%
    18:00 +17°C° 0 mm 5 m/s 756 mmHg 63%
    19:00 +17°C° 0 mm 4 m/s 757 mmHg 66%
    20:00 +16°C° 0 mm 3 m/s 758 mmHg 69%
    21:00 +14°C° 0 mm 3 m/s 758 mmHg 70%
    22:00 +13°C° 0 mm 3 m/s 759 mmHg 70%
    23:00 +12°C° 0 mm 3 m/s 759 mmHg 71%

    28 Avril, Samedi

    Heure Température Précipitation Vent Pression Humidité
    00:00 +12°C° 0 mm 3 m/s 760 mmHg 71%
    01:00 +11°C° 0 mm 3 m/s 760 mmHg 71%
    02:00 +11°C° 0 mm 3 m/s 760 mmHg 71%
    03:00 +10°C° 0 mm 3 m/s 761 mmHg 72%
    04:00 +10°C° 0 mm 3 m/s 761 mmHg 73%
    05:00 +10°C° 0 mm 2 m/s 761 mmHg 74%
    06:00 +11°C° 0 mm 3 m/s 762 mmHg 67%
    07:00 +13°C° 0 mm 3 m/s 762 mmHg 60%
    08:00 +16°C° 0 mm 3 m/s 762 mmHg 53%
    09:00 +17°C° 0 mm 3 m/s 763 mmHg 47%
    10:00 +18°C° 0 mm 3 m/s 763 mmHg 42%
    11:00 +20°C° 0 mm 3 m/s 763 mmHg 36%
    12:00 +20°C° 0 mm 3 m/s 763 mmHg 34%
    13:00 +21°C° 0 mm 3 m/s 762 mmHg 33%
    14:00 +21°C° 0 mm 2 m/s 762 mmHg 31%
    15:00 +21°C° 0 mm 2 m/s 762 mmHg 32%
    16:00 +21°C° 0 mm 2 m/s 762 mmHg 32%
    17:00 +21°C° 0 mm 2 m/s 762 mmHg 33%
    18:00 +20°C° 0 mm 2 m/s 762 mmHg 37%
    19:00 +18°C° 0 mm 2 m/s 762 mmHg 41%
    20:00 +16°C° 0 mm 2 m/s 763 mmHg 45%
    21:00 +16°C° 0 mm 2 m/s 763 mmHg 47%
    22:00 +15°C° 0 mm 2 m/s 763 mmHg 49%
    23:00 +14°C° 0 mm 2 m/s 763 mmHg 51%

    29 Avril, Dimanche

    Heure Température Précipitation Vent Pression Humidité
    00:00 +14°C° 0 mm 2 m/s 763 mmHg 53%
    01:00 +13°C° 0 mm 2 m/s 763 mmHg 55%
    02:00 +13°C° 0 mm 2 m/s 764 mmHg 56%
    03:00 +13°C° 0 mm 2 m/s 764 mmHg 58%
    04:00 +12°C° 0 mm 2 m/s 764 mmHg 60%
    05:00 +12°C° 0 mm 2 m/s 764 mmHg 61%
    06:00 +13°C° 0 mm 3 m/s 764 mmHg 57%
    07:00 +16°C° 0 mm 3 m/s 764 mmHg 52%
    08:00 +18°C° 0 mm 3 m/s 764 mmHg 48%
    09:00 +19°C° 0 mm 3 m/s 764 mmHg 44%
    10:00 +21°C° 0 mm 4 m/s 764 mmHg 40%
    11:00 +22°C° 0 mm 4 m/s 764 mmHg 36%
    12:00 +23°C° 0 mm 4 m/s 763 mmHg 35%
    13:00 +23°C° 0 mm 4 m/s 763 mmHg 34%
    14:00 +25°C° 0 mm 3 m/s 763 mmHg 33%
    15:00 +25°C° 0 mm 3 m/s 762 mmHg 35%
    16:00 +25°C° 0 mm 3 m/s 762 mmHg 36%
    17:00 +24°C° 0 mm 3 m/s 762 mmHg 38%
    18:00 +21°C° 0 mm 3 m/s 762 mmHg 44%
    19:00 +19°C° 0 mm 3 m/s 762 mmHg 49%
    20:00 +17°C° 0 mm 3 m/s 762 mmHg 55%
    21:00 +16°C° 0 mm 3 m/s 761 mmHg 57%
    22:00 +16°C° 0 mm 3 m/s 761 mmHg 59%
    23:00 +15°C° 0 mm 2 m/s 761 mmHg 61%

    30 Avril, Lundi

    Heure Température Précipitation Vent Pression Humidité
    00:00 +14°C° 0 mm 2 m/s 761 mmHg 62%
    01:00 +14°C° 0 mm 2 m/s 761 mmHg 63%
    02:00 +13°C° 0 mm 2 m/s 761 mmHg 65%
    03:00 +13°C° 0 mm 2 m/s 761 mmHg 66%
    04:00 +12°C° 0 mm 3 m/s 761 mmHg 68%
    05:00 +11°C° 0 mm 3 m/s 760 mmHg 70%
    06:00 +14°C° 0 mm 3 m/s 760 mmHg 65%
    07:00 +17°C° 0 mm 4 m/s 760 mmHg 60%
    08:00 +19°C° 0 mm 5 m/s 760 mmHg 54%
    09:00 +20°C° 0 mm 5 m/s 760 mmHg 50%
    10:00 +22°C° 0 mm 5 m/s 760 mmHg 45%
    11:00 +25°C° 0 mm 5 m/s 760 mmHg 40%
    12:00 +26°C° 0 mm 5 m/s 759 mmHg 39%
    13:00 +26°C° 0 mm 5 m/s 759 mmHg 37%
    14:00 +27°C° 0 mm 6 m/s 758 mmHg 35%
    15:00 +26°C° 0 mm 5 m/s 758 mmHg 36%
    16:00 +26°C° 0 mm 5 m/s 758 mmHg 37%
    17:00 +26°C° 0 mm 5 m/s 758 mmHg 39%
    18:00 +22°C° 0 mm 4 m/s 758 mmHg 44%
    19:00 +20°C° 0 mm 4 m/s 758 mmHg 49%
    20:00 +18°C° 0 mm 3 m/s 758 mmHg 55%
    21:00 +17°C° 0 mm 3 m/s 758 mmHg 57%
    22:00 +16°C° 0 mm 3 m/s 758 mmHg 60%
    23:00 +16°C° 0 mm 3 m/s 758 mmHg 63%
    Voir plus